Timestamp, Local Timestamp, ID, PM25, PM10, Co2, Temperature, Relative Humidity, Monitor ID, O3
2019-11-07T04:19:20Z,11/06/19 23:19,4027004,0.08299999999999999,0.001,805,23.4,33.5,65,0.0
2019-11-07T04:20:20Z,11/06/19 23:20,4027012,0.039,0.0,874,23.4,33.6,65,0.0
2019-11-07T04:21:20Z,11/06/19 23:21,4027020,0.03,0.0,855,23.5,33.5,65,0.0
2019-11-07T04:22:20Z,11/06/19 23:22,4027029,0.018,0.0,826,23.6,33.4,65,0.0
2019-11-07T04:23:20Z,11/06/19 23:23,4027036,0.033,0.0,752,23.6,33.1,65,0.0
2019-11-07T04:24:37Z,11/06/19 23:24,4027050,0.048,0.0,695,23.7,32.8,65,1.0
2019-11-07T04:25:37Z,11/06/19 23:25,4027057,0.027000000000000003,0.0,688,23.8,32.8,65,1.0
2019-11-07T04:26:37Z,11/06/19 23:26,4027065,0.027000000000000003,0.0,666,23.8,32.7,65,2.0
2019-11-07T04:27:37Z,11/06/19 23:27,4027073,0.05,0.001,637,23.9,32.6,65,2.0
2019-11-07T04:28:55Z,11/06/19 23:28,4027085,0.039,0.0,651,24.0,32.4,65,2.0
2019-11-07T04:29:55Z,11/06/19 23:29,4027093,0.045,0.0,675,24.0,32.4,65,2.0
2019-11-07T04:30:55Z,11/06/19 23:30,4027103,0.033,0.0,675,24.1,32.3,65,2.0
2019-11-07T04:31:55Z,11/06/19 23:31,4027110,0.012,0.0,708,24.1,32.3,65,2.0
2019-11-07T04:32:55Z,11/06/19 23:32,4027118,0.06,0.0,722,24.1,32.2,65,2.0
2019-11-07T04:33:55Z,11/06/19 23:33,4027126,0.06,0.0,692,24.1,32.1,65,2.0
2019-11-07T04:35:13Z,11/06/19 23:35,4027138,0.06,0.0,708,24.2,32.0,65,2.0
2019-11-07T04:36:13Z,11/06/19 23:36,4027146,0.018,0.0,679,24.3,31.8,65,2.0
2019-11-07T04:37:30Z,11/06/19 23:37,4027157,0.041999999999999996,0.0,680,24.3,31.7,65,3.0
2019-11-07T04:38:30Z,11/06/19 23:38,4027166,0.012,0.0,664,24.4,31.6,65,2.0
2019-11-07T04:39:30Z,11/06/19 23:39,4027174,0.06899999999999999,0.0,693,24.4,31.6,65,3.0
2019-11-07T04:40:48Z,11/06/19 23:40,4027185,0.006,0.0,662,24.5,31.4,65,2.0
2019-11-07T04:41:48Z,11/06/19 23:41,4027194,0.039,0.0,655,24.5,31.3,65,2.0
2019-11-07T04:43:05Z,11/06/19 23:43,4027203,0.038,0.001,682,24.6,31.2,65,2.0
2019-11-07T04:44:05Z,11/06/19 23:44,4027212,0.027000000000000003,0.0,675,24.6,31.2,65,2.0
2019-11-07T04:45:05Z,11/06/19 23:45,4027221,0.02,0.001,665,24.6,31.1,65,2.0
2019-11-07T04:46:22Z,11/06/19 23:46,4027231,0.041999999999999996,0.0,658,24.6,31.0,65,2.0
2019-11-07T04:47:22Z,11/06/19 23:47,4027240,0.041999999999999996,0.0,669,24.7,30.9,65,2.0
2019-11-07T04:48:41Z,11/06/19 23:48,4027251,0.054000000000000006,0.0,622,24.7,30.8,65,2.0
2019-11-07T04:49:41Z,11/06/19 23:49,4027260,0.036,0.0,645,24.7,30.7,65,2.0
2019-11-07T04:50:41Z,11/06/19 23:50,4027269,0.015,0.0,647,24.7,30.7,65,2.0
2019-11-07T04:51:41Z,11/06/19 23:51,4027278,0.015,0.0,663,24.7,30.6,65,2.0
2019-11-07T04:52:41Z,11/06/19 23:52,4027287,0.048,0.0,656,24.7,30.5,65,2.0
2019-11-07T04:53:41Z,11/06/19 23:53,4027295,0.024,0.0,656,24.7,30.4,65,2.0
2019-11-07T04:54:41Z,11/06/19 23:54,4027304,0.024,0.0,658,24.7,30.4,65,2.0
2019-11-07T04:55:41Z,11/06/19 23:55,4027312,0.014000000000000002,0.001,633,24.8,30.4,65,1.0
2019-11-07T04:57:00Z,11/06/19 23:57,4027321,0.028999999999999998,0.001,652,24.8,30.3,65,1.0
2019-11-07T04:57:59Z,11/06/19 23:57,4027330,0.054000000000000006,0.0,643,24.8,30.2,65,1.0
2019-11-07T04:58:59Z,11/06/19 23:58,4027339,0.081,0.0,619,24.8,30.1,65,2.0
2019-11-07T05:00:17Z,11/07/19 00:00,4027348,0.063,0.0,639,24.8,30.1,65,2.0
2019-11-07T05:01:18Z,11/07/19 00:01,4027357,0.06,0.0,632,24.8,30.0,65,2.0
2019-11-07T05:02:17Z,11/07/19 00:02,4027366,0.051000000000000004,0.0,641,24.8,30.0,65,2.0
2019-11-07T05:03:35Z,11/07/19 00:03,4027379,0.096,0.0,654,24.8,29.9,65,2.0
2019-11-07T05:04:35Z,11/07/19 00:04,4027387,0.073,0.005,618,24.8,29.8,65,2.0
2019-11-07T05:05:54Z,11/07/19 00:05,4027398,0.024,0.0,620,24.8,29.8,65,3.0
2019-11-07T05:06:54Z,11/07/19 00:06,4027406,0.089,0.001,614,24.7,29.7,65,2.0
2019-11-07T05:07:54Z,11/07/19 00:07,4027415,0.06,0.0,614,24.7,29.7,65,2.0
2019-11-07T05:08:54Z,11/07/19 00:08,4027422,0.075,0.0,631,24.7,29.7,65,4.0
2019-11-07T05:09:54Z,11/07/19 00:09,4027431,0.041999999999999996,0.0,629,24.7,29.6,65,3.0
2019-11-07T05:10:54Z,11/07/19 00:10,4027439,0.099,0.0,612,24.7,29.6,65,3.0
2019-11-07T05:12:12Z,11/07/19 00:12,4027450,0.144,0.0,640,24.7,29.6,65,3.0
2019-11-07T05:13:11Z,11/07/19 00:13,4027458,0.086,0.001,599,24.7,29.5,65,3.0
2019-11-07T05:14:30Z,11/07/19 00:14,4027468,0.096,0.0,614,24.7,29.5,65,3.0
2019-11-07T05:15:30Z,11/07/19 00:15,4027477,0.063,0.0,597,24.7,29.5,65,3.0
2019-11-07T05:16:30Z,11/07/19 00:16,4027485,0.096,0.0,599,24.7,29.4,65,3.0
2019-11-07T05:17:30Z,11/07/19 00:17,4027494,0.075,0.0,620,24.7,29.4,65,3.0
2019-11-07T05:18:30Z,11/07/19 00:18,4027503,0.099,0.0,607,24.6,29.4,65,3.0
2019-11-07T05:19:48Z,11/07/19 00:19,4027514,0.11699999999999999,0.0,591,24.6,29.3,65,3.0
2019-11-07T05:20:48Z,11/07/19 00:20,4027523,0.074,0.001,607,24.6,29.3,65,3.0
2019-11-07T05:21:48Z,11/07/19 00:21,4027532,0.11399999999999999,0.0,578,24.6,29.3,65,4.0
2019-11-07T05:22:48Z,11/07/19 00:22,4027541,0.126,0.0,585,24.6,29.3,65,4.0
2019-11-07T05:23:48Z,11/07/19 00:23,4027549,0.123,0.0,598,24.6,29.3,65,4.0
2019-11-07T05:25:07Z,11/07/19 00:25,4027559,0.12,0.0,573,24.6,29.3,65,3.0
2019-11-07T05:26:07Z,11/07/19 00:26,4027568,0.096,0.0,596,24.6,29.2,65,4.0
2019-11-07T05:27:07Z,11/07/19 00:27,4027576,0.093,0.0,577,24.5,29.2,65,4.0
2019-11-07T05:28:25Z,11/07/19 00:28,4027585,0.144,0.0,581,24.5,29.2,65,3.0
2019-11-07T05:29:25Z,11/07/19 00:29,4027594,0.089,0.001,571,24.5,29.2,65,4.0
2019-11-07T05:30:25Z,11/07/19 00:30,4027603,0.173,0.001,562,24.5,29.1,65,3.0
2019-11-07T05:31:25Z,11/07/19 00:31,4027612,0.18,0.0,588,24.5,29.1,65,4.0
2019-11-07T05:32:25Z,11/07/19 00:32,4027621,0.095,0.001,575,24.5,29.1,65,4.0
2019-11-07T05:33:44Z,11/07/19 00:33,4027632,0.183,0.0,585,24.4,29.0,65,4.0
2019-11-07T05:34:44Z,11/07/19 00:34,4027641,0.144,0.0,569,24.4,29.0,65,4.0
2019-11-07T05:35:44Z,11/07/19 00:35,4027650,0.135,0.0,567,24.4,29.0,65,4.0
2019-11-07T05:37:01Z,11/07/19 00:37,4027660,0.156,0.0,570,24.4,29.0,65,4.0
2019-11-07T05:38:01Z,11/07/19 00:38,4027669,0.18,0.0,585,24.4,28.9,65,4.0
2019-11-07T05:39:02Z,11/07/19 00:39,4027678,0.16799999999999998,0.0,596,24.4,28.9,65,4.0
2019-11-07T05:40:20Z,11/07/19 00:40,4027687,0.188,0.001,572,24.3,28.9,65,4.0
2019-11-07T05:41:20Z,11/07/19 00:41,4027696,0.11399999999999999,0.0,572,24.3,28.9,65,4.0
2019-11-07T05:42:20Z,11/07/19 00:42,4027705,0.16499999999999998,0.0,577,24.3,28.9,65,4.0
2019-11-07T05:43:38Z,11/07/19 00:43,4027716,0.11699999999999999,0.0,579,24.3,28.9,65,5.0
2019-11-07T05:44:38Z,11/07/19 00:44,4027725,0.16699999999999998,0.001,583,24.3,28.9,65,5.0
2019-11-07T05:45:38Z,11/07/19 00:45,4027733,0.159,0.0,566,24.3,28.9,65,4.0
2019-11-07T05:46:38Z,11/07/19 00:46,4027742,0.162,0.0,553,24.3,28.9,65,4.0
2019-11-07T05:47:56Z,11/07/19 00:47,4027752,0.17099999999999999,0.0,572,24.3,28.9,65,5.0
2019-11-07T05:48:56Z,11/07/19 00:48,4027760,0.186,0.0,531,24.2,28.9,65,4.0
2019-11-07T05:49:56Z,11/07/19 00:49,4027769,0.219,0.0,579,24.2,28.8,65,4.0
2019-11-07T05:50:56Z,11/07/19 00:50,4027778,0.141,0.0,566,24.2,28.8,65,4.0
2019-11-07T05:51:56Z,11/07/19 00:51,4027787,0.189,0.0,568,24.2,28.8,65,5.0
2019-11-07T05:52:56Z,11/07/19 00:52,4027796,0.213,0.0,589,24.2,28.8,65,5.0
2019-11-07T05:54:14Z,11/07/19 00:54,4027805,0.20099999999999998,0.0,555,24.2,28.8,65,5.0
2019-11-07T05:55:14Z,11/07/19 00:55,4027814,0.123,0.0,568,24.2,28.8,65,5.0
2019-11-07T05:56:14Z,11/07/19 00:56,4027823,0.152,0.001,591,24.2,28.8,65,4.0
2019-11-07T05:57:32Z,11/07/19 00:57,4027833,0.144,0.0,566,24.1,28.7,65,5.0
2019-11-07T05:58:32Z,11/07/19 00:58,4027843,0.177,0.0,576,24.1,28.7,65,5.0
2019-11-07T05:59:32Z,11/07/19 00:59,4027852,0.183,0.0,561,24.1,28.7,65,5.0
2019-11-07T06:00:52Z,11/07/19 01:00,4027862,0.20400000000000001,0.0,557,24.1,28.7,65,4.0
2019-11-07T06:01:52Z,11/07/19 01:01,4027871,0.156,0.0,572,24.1,28.7,65,5.0
2019-11-07T06:02:52Z,11/07/19 01:02,4027879,0.16999999999999998,0.001,568,24.1,28.6,65,5.0
2019-11-07T06:03:52Z,11/07/19 01:03,4027888,0.141,0.0,572,24.1,28.6,65,5.0
2019-11-07T06:04:52Z,11/07/19 01:04,4027896,0.16799999999999998,0.0,578,24.1,28.6,65,5.0
2019-11-07T06:05:51Z,11/07/19 01:05,4027905,0.23399999999999999,0.0,563,24.1,28.6,65,5.0
2019-11-07T06:07:10Z,11/07/19 01:07,4027916,0.141,0.0,570,24.1,28.6,65,5.0
2019-11-07T06:08:10Z,11/07/19 01:08,4027925,0.215,0.001,543,24.1,28.6,65,4.0
2019-11-07T06:09:10Z,11/07/19 01:09,4027933,0.24300000000000002,0.0,566,24.1,28.6,65,6.0
2019-11-07T06:10:27Z,11/07/19 01:10,4027943,0.18,0.0,568,24.1,28.6,65,5.0
2019-11-07T06:11:27Z,11/07/19 01:11,4027952,0.195,0.0,566,24.1,28.6,65,5.0
2019-11-07T06:12:27Z,11/07/19 01:12,4027961,0.217,0.002,555,24.1,28.6,65,6.0
2019-11-07T06:13:27Z,11/07/19 01:13,4027969,0.183,0.0,563,24.1,28.6,65,5.0
2019-11-07T06:14:45Z,11/07/19 01:14,4027981,0.146,0.001,538,24.1,28.5,65,5.0
2019-11-07T06:15:45Z,11/07/19 01:15,4027989,0.15,0.0,571,24.1,28.5,65,5.0
2019-11-07T06:16:45Z,11/07/19 01:16,4027997,0.17099999999999999,0.0,542,24.1,28.5,65,5.0
2019-11-07T06:17:45Z,11/07/19 01:17,4028006,0.126,0.0,546,24.1,28.5,65,5.0
2019-11-07T06:18:45Z,11/07/19 01:18,4028014,0.16499999999999998,0.0,556,24.1,28.5,65,5.0
2019-11-07T06:19:45Z,11/07/19 01:19,4028023,0.236,0.001,546,24.0,28.5,65,5.0
2019-11-07T06:20:45Z,11/07/19 01:20,4028032,0.20400000000000001,0.0,552,24.0,28.5,65,5.0
2019-11-07T06:22:04Z,11/07/19 01:22,4028042,0.189,0.0,556,24.0,28.4,65,5.0
2019-11-07T06:23:04Z,11/07/19 01:23,4028051,0.176,0.001,550,24.0,28.5,65,5.0
2019-11-07T06:24:04Z,11/07/19 01:24,4028060,0.231,0.0,552,24.0,28.4,65,5.0
2019-11-07T06:25:23Z,11/07/19 01:25,4028069,0.225,0.0,542,24.0,28.3,65,6.0
2019-11-07T06:26:23Z,11/07/19 01:26,4028078,0.174,0.0,538,24.0,28.3,65,6.0
2019-11-07T06:27:23Z,11/07/19 01:27,4028086,0.21600000000000003,0.0,552,24.0,28.2,65,6.0
2019-11-07T06:28:23Z,11/07/19 01:28,4028093,0.246,0.0,567,24.0,28.2,65,6.0
2019-11-07T06:29:23Z,11/07/19 01:29,4028101,0.146,0.001,550,24.0,28.2,65,5.0
2019-11-07T06:30:40Z,11/07/19 01:30,4028113,0.17099999999999999,0.0,536,24.0,28.2,65,5.0
2019-11-07T06:31:40Z,11/07/19 01:31,4028122,0.225,0.0,554,23.9,28.2,65,6.0
2019-11-07T06:32:40Z,11/07/19 01:32,4028131,0.17099999999999999,0.0,528,23.9,28.2,65,6.0
2019-11-07T06:33:40Z,11/07/19 01:33,4028139,0.15,0.0,552,23.9,28.3,65,5.0
2019-11-07T06:34:40Z,11/07/19 01:34,4028148,0.125,0.001,552,23.9,28.3,65,6.0
2019-11-07T06:35:58Z,11/07/19 01:35,4028158,0.128,0.001,556,23.9,28.5,65,4.0
2019-11-07T06:36:58Z,11/07/19 01:36,4028166,0.11399999999999999,0.0,552,23.9,28.5,65,4.0
2019-11-07T06:37:58Z,11/07/19 01:37,4028175,0.126,0.0,546,23.9,28.6,65,4.0
2019-11-07T06:39:16Z,11/07/19 01:39,4028184,0.13799999999999998,0.0,546,23.9,28.6,65,5.0
2019-11-07T06:40:16Z,11/07/19 01:40,4028193,0.135,0.0,544,23.9,28.6,65,4.0
2019-11-07T06:41:35Z,11/07/19 01:41,4028205,0.126,0.0,550,24.0,28.6,65,4.0
2019-11-07T06:42:35Z,11/07/19 01:42,4028213,0.147,0.0,544,24.0,28.8,65,4.0
2019-11-07T06:43:35Z,11/07/19 01:43,4028218,0.10500000000000001,0.0,552,24.0,28.8,65,4.0
2019-11-07T06:44:35Z,11/07/19 01:44,4028225,0.12,0.0,550,24.0,28.8,65,4.0
2019-11-07T06:45:35Z,11/07/19 01:45,4028232,0.087,0.0,565,24.0,28.8,65,4.0
2019-11-07T06:46:53Z,11/07/19 01:46,4028246,0.063,0.0,561,24.1,28.8,65,3.0
2019-11-07T06:47:53Z,11/07/19 01:47,4028255,0.063,0.0,546,24.1,28.8,65,3.0
2019-11-07T06:49:12Z,11/07/19 01:49,4028265,0.087,0.0,559,24.1,28.6,65,4.0
2019-11-07T06:50:12Z,11/07/19 01:50,4028273,0.11699999999999999,0.0,553,24.1,28.6,65,4.0
2019-11-07T06:51:12Z,11/07/19 01:51,4028282,0.08399999999999999,0.0,563,24.1,28.7,65,3.0
2019-11-07T06:52:30Z,11/07/19 01:52,4028292,0.10500000000000001,0.0,537,24.1,28.6,65,3.0
2019-11-07T06:53:30Z,11/07/19 01:53,4028301,0.132,0.0,537,24.1,28.6,65,3.0
2019-11-07T06:54:30Z,11/07/19 01:54,4028309,0.039,0.0,572,24.1,28.5,65,3.0
2019-11-07T06:55:47Z,11/07/19 01:55,4028322,0.06899999999999999,0.0,561,24.2,28.5,65,3.0
2019-11-07T06:56:47Z,11/07/19 01:56,4028331,0.08399999999999999,0.0,551,24.2,28.4,65,3.0
2019-11-07T06:57:47Z,11/07/19 01:57,4028339,0.11599999999999999,0.001,541,24.2,28.4,65,3.0
2019-11-07T06:59:07Z,11/07/19 01:59,4028348,0.129,0.0,537,24.3,28.4,65,3.0
2019-11-07T07:00:07Z,11/07/19 02:00,4028355,0.06899999999999999,0.0,549,24.3,28.4,65,3.0
2019-11-07T07:01:06Z,11/07/19 02:01,4028363,0.09,0.0,568,24.3,28.3,65,3.0
2019-11-07T07:02:25Z,11/07/19 02:02,4028372,0.099,0.0,557,24.4,28.3,65,3.0
2019-11-07T07:03:25Z,11/07/19 02:03,4028380,0.096,0.0,562,24.4,28.2,65,3.0
2019-11-07T07:04:42Z,11/07/19 02:04,4028390,0.132,0.0,548,24.4,28.2,65,3.0
2019-11-07T07:05:42Z,11/07/19 02:05,4028398,0.195,0.0,548,24.5,28.1,65,3.0
2019-11-07T07:06:42Z,11/07/19 02:06,4028406,0.13999999999999999,0.001,544,24.5,28.0,65,3.0
2019-11-07T07:08:01Z,11/07/19 02:08,4028414,0.144,0.0,544,24.5,27.9,65,3.0
2019-11-07T07:09:01Z,11/07/19 02:09,4028422,0.225,0.0,550,24.5,27.9,65,4.0
2019-11-07T07:10:19Z,11/07/19 02:10,4028430,0.12,0.0,519,24.5,27.9,65,3.0
2019-11-07T07:11:19Z,11/07/19 02:11,4028438,0.18,0.0,550,24.5,27.9,65,3.0
2019-11-07T07:12:19Z,11/07/19 02:12,4028446,0.148,0.002,532,24.5,27.9,65,3.0
2019-11-07T07:13:19Z,11/07/19 02:13,4028454,0.219,0.0,522,24.5,27.8,65,4.0
2019-11-07T07:14:19Z,11/07/19 02:14,4028462,0.174,0.0,542,24.5,27.8,65,4.0
2019-11-07T07:15:19Z,11/07/19 02:15,4028470,0.10500000000000001,0.0,538,24.5,27.8,65,3.0
2019-11-07T07:16:37Z,11/07/19 02:16,4028480,0.20400000000000001,0.0,538,24.5,27.8,65,4.0
2019-11-07T07:17:37Z,11/07/19 02:17,4028486,0.097,0.002,546,24.5,27.7,65,4.0
2019-11-07T07:18:37Z,11/07/19 02:18,4028495,0.20400000000000001,0.0,538,24.4,27.7,65,4.0
2019-11-07T07:19:37Z,11/07/19 02:19,4028502,0.159,0.0,522,24.4,27.7,65,5.0
2019-11-07T07:20:55Z,11/07/19 02:20,4028512,0.135,0.0,530,24.4,27.7,65,4.0
2019-11-07T07:21:55Z,11/07/19 02:21,4028520,0.11299999999999999,0.001,537,24.4,27.7,65,4.0
2019-11-07T07:22:55Z,11/07/19 02:22,4028529,0.174,0.0,523,24.4,27.7,65,4.0
2019-11-07T07:24:15Z,11/07/19 02:24,4028537,0.213,0.0,545,24.4,27.7,65,5.0
2019-11-07T07:25:15Z,11/07/19 02:25,4028545,0.123,0.0,551,24.3,27.7,65,5.0
2019-11-07T07:26:15Z,11/07/19 02:26,4028553,0.191,0.001,541,24.3,27.7,65,5.0
2019-11-07T07:27:32Z,11/07/19 02:27,4028561,0.24900000000000003,0.0,533,24.3,27.7,65,5.0
2019-11-07T07:28:32Z,11/07/19 02:28,4028569,0.16799999999999998,0.0,543,24.3,27.7,65,5.0
2019-11-07T07:29:32Z,11/07/19 02:29,4028576,0.198,0.0,547,24.3,27.7,65,5.0
2019-11-07T07:30:32Z,11/07/19 02:30,4028584,0.191,0.001,545,24.3,27.7,65,5.0
2019-11-07T07:31:51Z,11/07/19 02:31,4028595,0.20400000000000001,0.0,549,24.3,27.7,65,4.0
2019-11-07T07:32:51Z,11/07/19 02:32,4028601,0.20099999999999998,0.0,549,24.2,27.5,65,5.0
2019-11-07T07:33:51Z,11/07/19 02:33,4028609,0.177,0.003,541,24.2,27.4,65,4.0
2019-11-07T07:34:51Z,11/07/19 02:34,4028617,0.21000000000000002,0.0,543,24.2,27.4,65,4.0
2019-11-07T07:35:51Z,11/07/19 02:35,4028625,0.155,0.001,535,24.2,27.4,65,5.0
2019-11-07T07:37:08Z,11/07/19 02:37,4028634,0.11399999999999999,0.0,525,24.2,27.3,65,5.0
2019-11-07T07:38:08Z,11/07/19 02:38,4028642,0.18,0.0,529,24.1,27.4,65,5.0
2019-11-07T07:39:08Z,11/07/19 02:39,4028650,0.144,0.0,529,24.1,27.4,65,5.0
2019-11-07T07:40:08Z,11/07/19 02:40,4028658,0.21000000000000002,0.0,525,24.1,27.5,65,5.0
2019-11-07T07:41:08Z,11/07/19 02:41,4028665,0.099,0.0,553,24.1,27.6,65,5.0
2019-11-07T07:42:26Z,11/07/19 02:42,4028673,0.129,0.0,518,24.1,27.7,65,5.0
2019-11-07T07:43:26Z,11/07/19 02:43,4028681,0.183,0.0,549,24.1,27.8,65,5.0
2019-11-07T07:44:26Z,11/07/19 02:44,4028689,0.087,0.0,531,24.1,27.8,65,4.0
2019-11-07T07:45:44Z,11/07/19 02:45,4028698,0.135,0.0,541,24.1,27.8,65,4.0
2019-11-07T07:46:44Z,11/07/19 02:46,4028706,0.153,0.0,529,24.1,27.8,65,4.0
2019-11-07T07:47:44Z,11/07/19 02:47,4028714,0.078,0.0,535,24.1,27.8,65,4.0
2019-11-07T07:48:44Z,11/07/19 02:48,4028722,0.10800000000000001,0.0,541,24.1,27.8,65,4.0
2019-11-07T07:49:44Z,11/07/19 02:49,4028729,0.11699999999999999,0.0,549,24.1,27.8,65,3.0
2019-11-07T07:51:01Z,11/07/19 02:51,4028739,0.081,0.0,537,24.1,27.9,65,4.0
2019-11-07T07:52:01Z,11/07/19 02:52,4028746,0.066,0.0,529,24.1,27.8,65,4.0
2019-11-07T07:53:01Z,11/07/19 02:53,4028754,0.071,0.001,555,24.2,27.8,65,3.0
2019-11-07T07:54:18Z,11/07/19 02:54,4028762,0.141,0.0,539,24.2,27.8,65,3.0
2019-11-07T07:55:18Z,11/07/19 02:55,4028770,0.075,0.0,557,24.2,27.8,65,3.0
2019-11-07T07:56:37Z,11/07/19 02:56,4028780,0.129,0.0,545,24.2,27.8,65,3.0
2019-11-07T07:57:37Z,11/07/19 02:57,4028788,0.10500000000000001,0.0,521,24.2,27.8,65,3.0
2019-11-07T07:58:37Z,11/07/19 02:58,4028796,0.06,0.0,537,24.3,27.8,65,3.0
2019-11-07T07:59:54Z,11/07/19 02:59,4028804,0.09,0.0,529,24.3,27.8,65,3.0
2019-11-07T08:00:54Z,11/07/19 03:00,4028812,0.09,0.0,551,24.3,27.8,65,3.0
2019-11-07T08:02:12Z,11/07/19 03:02,4028821,0.12,0.0,541,24.3,27.8,65,3.0
2019-11-07T08:03:12Z,11/07/19 03:03,4028828,0.10800000000000001,0.0,525,24.3,27.8,65,3.0
2019-11-07T08:04:12Z,11/07/19 03:04,4028835,0.081,0.0,543,24.4,27.8,65,3.0
2019-11-07T08:05:31Z,11/07/19 03:05,4028847,0.10400000000000001,0.001,527,24.4,27.7,65,3.0
2019-11-07T08:06:31Z,11/07/19 03:06,4028853,0.123,0.0,522,24.5,27.7,65,3.0
2019-11-07T08:07:31Z,11/07/19 03:07,4028861,0.099,0.0,526,24.5,27.6,65,3.0
2019-11-07T08:08:31Z,11/07/19 03:08,4028868,0.141,0.0,556,24.5,27.5,65,3.0
2019-11-07T08:09:31Z,11/07/19 03:09,4028876,0.159,0.0,540,24.5,27.5,65,3.0
2019-11-07T08:10:31Z,11/07/19 03:10,4028884,0.159,0.0,511,24.5,27.4,65,4.0
2019-11-07T08:11:31Z,11/07/19 03:11,4028893,0.10800000000000001,0.0,530,24.5,27.4,65,4.0
2019-11-07T08:12:49Z,11/07/19 03:12,4028902,0.132,0.0,536,24.5,27.4,65,4.0
2019-11-07T08:13:49Z,11/07/19 03:13,4028909,0.186,0.0,522,24.5,27.3,65,4.0
2019-11-07T08:14:49Z,11/07/19 03:14,4028917,0.144,0.0,540,24.6,27.3,65,4.0
2019-11-07T08:15:49Z,11/07/19 03:15,4028925,0.10500000000000001,0.0,528,24.6,27.2,65,4.0
2019-11-07T08:16:50Z,11/07/19 03:16,4028933,0.156,0.0,519,24.5,27.2,65,4.0
2019-11-07T08:17:49Z,11/07/19 03:17,4028940,0.195,0.0,505,24.5,27.2,65,4.0
2019-11-07T08:18:49Z,11/07/19 03:18,4028948,0.153,0.0,517,24.5,27.2,65,5.0
2019-11-07T08:19:49Z,11/07/19 03:19,4028954,0.16499999999999998,0.0,524,24.5,27.2,65,4.0
2019-11-07T08:21:06Z,11/07/19 03:21,4028965,0.15,0.0,548,24.5,27.2,65,4.0
2019-11-07T08:22:06Z,11/07/19 03:22,4028972,0.2,0.001,524,24.5,27.2,65,4.0
2019-11-07T08:23:06Z,11/07/19 03:23,4028979,0.22799999999999998,0.0,524,24.5,27.1,65,4.0
2019-11-07T08:24:06Z,11/07/19 03:24,4028986,0.20400000000000001,0.0,528,24.5,27.1,65,4.0
2019-11-07T08:25:06Z,11/07/19 03:25,4028993,0.231,0.0,515,24.5,27.1,65,4.0
2019-11-07T08:26:24Z,11/07/19 03:26,4029003,0.188,0.001,540,24.5,27.1,65,5.0
2019-11-07T08:27:24Z,11/07/19 03:27,4029010,0.20099999999999998,0.0,538,24.4,27.1,65,5.0
2019-11-07T08:28:24Z,11/07/19 03:28,4029017,0.20400000000000001,0.0,542,24.4,27.1,65,5.0
2019-11-07T08:29:42Z,11/07/19 03:29,4029027,0.20099999999999998,0.0,539,24.4,27.1,65,5.0
2019-11-07T08:30:42Z,11/07/19 03:30,4029035,0.18,0.0,529,24.4,27.1,65,4.0
2019-11-07T08:31:42Z,11/07/19 03:31,4029042,0.16799999999999998,0.0,531,24.3,27.1,65,5.0
2019-11-07T08:32:42Z,11/07/19 03:32,4029049,0.20099999999999998,0.0,533,24.3,27.1,65,5.0
2019-11-07T08:33:42Z,11/07/19 03:33,4029056,0.147,0.0,539,24.3,27.0,65,5.0
2019-11-07T08:35:00Z,11/07/19 03:35,4029068,0.141,0.0,545,24.3,27.0,65,5.0
2019-11-07T08:36:00Z,11/07/19 03:36,4029075,0.126,0.0,549,24.3,27.0,65,6.0
2019-11-07T08:37:00Z,11/07/19 03:37,4029083,0.162,0.0,535,24.3,27.0,65,6.0
2019-11-07T08:38:18Z,11/07/19 03:38,4029092,0.10200000000000001,0.0,529,24.3,26.9,65,5.0
2019-11-07T08:39:18Z,11/07/19 03:39,4029100,0.137,0.001,533,24.2,26.9,65,5.0
2019-11-07T08:40:35Z,11/07/19 03:40,4029108,0.22799999999999998,0.0,523,24.2,27.0,65,5.0
2019-11-07T08:41:35Z,11/07/19 03:41,4029116,0.093,0.0,523,24.2,27.0,65,5.0
2019-11-07T08:42:35Z,11/07/19 03:42,4029123,0.096,0.0,543,24.2,27.1,65,5.0
2019-11-07T08:43:35Z,11/07/19 03:43,4029130,0.153,0.0,527,24.2,27.2,65,5.0
2019-11-07T08:44:54Z,11/07/19 03:44,4029142,0.135,0.0,516,24.1,27.3,65,5.0
2019-11-07T08:45:54Z,11/07/19 03:45,4029150,0.11000000000000001,0.001,543,24.1,27.3,65,4.0
2019-11-07T08:46:54Z,11/07/19 03:46,4029158,0.11299999999999999,0.001,525,24.1,27.3,65,4.0
2019-11-07T08:48:12Z,11/07/19 03:48,4029166,0.096,0.0,527,24.1,27.3,65,4.0
2019-11-07T08:49:12Z,11/07/19 03:49,4029174,0.12,0.0,527,24.2,27.3,65,4.0
2019-11-07T08:50:12Z,11/07/19 03:50,4029182,0.12,0.0,529,24.2,27.4,65,4.0
2019-11-07T08:51:12Z,11/07/19 03:51,4029190,0.15,0.0,541,24.2,27.4,65,4.0
2019-11-07T08:52:29Z,11/07/19 03:52,4029198,0.15,0.0,516,24.2,27.4,65,0.0
2019-11-07T08:53:29Z,11/07/19 03:53,4029206,0.12,0.0,545,24.2,27.4,65,3.0
2019-11-07T08:54:29Z,11/07/19 03:54,4029213,0.096,0.0,512,24.2,27.4,65,3.0
2019-11-07T08:55:48Z,11/07/19 03:55,4029224,0.11399999999999999,0.0,512,24.2,27.4,65,3.0
2019-11-07T08:56:47Z,11/07/19 03:56,4029232,0.06899999999999999,0.0,545,24.3,27.4,65,3.0
2019-11-07T08:58:06Z,11/07/19 03:58,4029241,0.093,0.0,523,24.3,27.4,65,3.0
2019-11-07T08:59:06Z,11/07/19 03:59,4029249,0.12,0.0,518,24.3,27.4,65,4.0
2019-11-07T09:00:25Z,11/07/19 04:00,4029257,0.087,0.0,525,24.3,27.4,65,3.0
2019-11-07T09:01:25Z,11/07/19 04:01,4029265,0.11100000000000002,0.0,537,24.3,27.4,65,3.0
2019-11-07T09:02:25Z,11/07/19 04:02,4029273,0.099,0.0,543,24.3,27.3,65,4.0
2019-11-07T09:03:25Z,11/07/19 04:03,4029281,0.099,0.0,510,24.3,27.3,65,3.0
2019-11-07T09:04:25Z,11/07/19 04:04,4029289,0.11100000000000002,0.0,521,24.4,27.3,65,4.0
2019-11-07T09:05:25Z,11/07/19 04:05,4029297,0.09,0.0,535,24.4,27.3,65,3.0
2019-11-07T09:06:43Z,11/07/19 04:06,4029306,0.099,0.0,538,24.4,27.3,65,4.0
2019-11-07T09:07:43Z,11/07/19 04:07,4029314,0.096,0.0,538,24.5,27.2,65,3.0
2019-11-07T09:08:43Z,11/07/19 04:08,4029322,0.10500000000000001,0.0,540,24.5,27.2,65,3.0
2019-11-07T09:09:43Z,11/07/19 04:09,4029330,0.093,0.0,513,24.5,27.1,65,4.0
2019-11-07T09:10:43Z,11/07/19 04:10,4029337,0.08399999999999999,0.0,519,24.5,27.1,65,3.0
2019-11-07T09:11:43Z,11/07/19 04:11,4029345,0.10200000000000001,0.0,558,24.6,27.1,65,4.0
2019-11-07T09:12:43Z,11/07/19 04:12,4029352,0.11100000000000002,0.0,524,24.6,27.1,65,3.0
2019-11-07T09:13:43Z,11/07/19 04:13,4029359,0.09,0.0,519,24.6,27.0,65,3.0
2019-11-07T09:15:00Z,11/07/19 04:15,4029369,0.144,0.0,509,24.6,26.9,65,4.0
2019-11-07T09:16:00Z,11/07/19 04:16,4029376,0.132,0.0,528,24.6,26.8,65,5.0
2019-11-07T09:17:18Z,11/07/19 04:17,4029388,0.156,0.0,528,24.6,26.8,65,5.0
2019-11-07T09:18:18Z,11/07/19 04:18,4029395,0.132,0.0,505,24.6,26.8,65,4.0
2019-11-07T09:19:18Z,11/07/19 04:19,4029403,0.11399999999999999,0.0,511,24.6,26.8,65,4.0
2019-11-07T09:20:18Z,11/07/19 04:20,4029409,0.11399999999999999,0.0,519,24.6,26.8,65,5.0
2019-11-07T09:21:18Z,11/07/19 04:21,4029417,0.15,0.0,505,24.6,26.8,65,4.0
2019-11-07T09:22:18Z,11/07/19 04:22,4029425,0.15,0.0,505,24.5,26.7,65,5.0
2019-11-07T09:23:18Z,11/07/19 04:23,4029430,0.15,0.0,517,24.5,26.7,65,5.0
2019-11-07T09:24:18Z,11/07/19 04:24,4029438,0.146,0.001,501,24.5,26.7,65,5.0
2019-11-07T09:25:36Z,11/07/19 04:25,4029451,0.093,0.0,501,24.5,26.7,65,5.0
2019-11-07T09:26:36Z,11/07/19 04:26,4029458,0.2,0.001,519,24.5,26.7,65,6.0
2019-11-13T02:59:12Z,11/12/19 21:59,4071459,0.027000000000000003,0.0,1184,24.2,24.1,65,0.0
2019-11-13T03:00:12Z,11/12/19 22:00,4071464,0.027000000000000003,0.0,1163,24.1,24.1,65,1.0
2019-11-13T03:01:30Z,11/12/19 22:01,4071470,0.012,0.0,1186,24.0,24.1,65,1.0
2019-11-13T03:02:30Z,11/12/19 22:02,4071475,0.012,0.0,1138,23.9,24.1,65,1.0
2019-11-13T03:03:46Z,11/12/19 22:03,4071481,0.018,0.0,1172,23.9,24.1,65,2.0
2019-11-13T03:04:46Z,11/12/19 22:04,4071486,0.017,0.001,1152,23.8,24.1,65,1.0
2019-11-13T03:05:46Z,11/12/19 22:05,4071489,0.024,0.0,1152,23.8,24.3,65,2.0
2019-11-13T03:06:46Z,11/12/19 22:06,4071492,0.020999999999999998,0.0,1139,23.8,24.3,65,2.0
2019-11-13T03:08:03Z,11/12/19 22:08,4071497,0.033,0.0,1160,23.9,24.3,65,2.0
2019-11-13T03:09:03Z,11/12/19 22:09,4071500,0.020999999999999998,0.0,1202,23.9,24.4,65,2.0
2019-11-13T03:10:21Z,11/12/19 22:10,4071503,0.009,0.0,1206,23.9,24.4,65,2.0